Temp
63 64 65 66 65 65 65 63 64 65 66 66 65 65 64 64 64 64 60 60 64 67 68 69 70 70 71 71 70 71 71 71 70 69 69 68 68 68 68 68 68 68 68
63 63 64 65 65 66 65 64 63 64 65 64 64 65 64 64 64 64 63 60 62 65 67 68 69 70 70 70 70 71 70 70 69 69 68 68 67 67 68 67 67 67 67
64 66 64 64 66 66 63 65 64 65 64 64 63 64 65 64 64 63 63 63 62 61 64 67 68 68 68 68 69 69 69 69 69 68 67 67 67 66 66 66 66 66 66
66 67 64 65 65 64 64 64 63 59 61 62 61 62 63 63 63 63 62 62 62 63 62 65 66 65 65 66 67 68 68 68 68 67 66 65 65 65 65 65 65 64 64
67 66 65 65 63 64 65 64 60 60 60 59 61 62 61 61 62 64 62 62 62 62 61 63 62 61 63 65 65 67 67 67 65 64 64 64 63 63 63 63 63 63 63
66 65 65 65 63 62 63 61 60 59 61 60 65 62 59 60 60 59 61 63 64 62 60 61 58 58 61 62 64 65 66 65 63 62 62 62 61 62 62 62 62 62 62
63 63 63 62 64 62 63 64 60 59 58 59 56 56 57 59 59 60 62 63 61 64 64 63 61 59 57 58 59 61 62 62 61 60 60 60 60 60 61 61 61 61 61
59 61 62 62 63 61 60 62 60 57 57 58 55 54 52 55 57 58 57 57 56 57 57 55 53 52 49 49 53 56 58 59 59 58 58 58 59 59 60 60 60 60 60
56 58 60 62 63 63 61 60 61 59 56 57 58 55 51 49 53 55 55 55 55 54 51 51 50 49 49 47 48 50 53 54 55 56 56 57 57 58 58 59 58 57 58
53 55 58 60 60 61 60 61 62 61 59 56 58 58 57 56 51 51 56 54 53 52 50 48 47 47 47 47 47 48 50 51 51 52 53 54 55 56 55 56 57 57 57
53 53 55 57 60 61 61 60 59 60 59 57 56 54 54 56 56 52 49 51 51 48 46 45 45 44 45 45 45 46 49 50 50 50 51 52 52 53 54 55 55 56 56
50 51 52 54 57 60 60 60 60 60 59 59 58 57 56 54 54 52 51 52 51 45 44 44 43 42 42 43 43 43 47 49 50 50 50 50 50 51 53 54 55 55 56
47 48 50 51 54 57 61 61 60 60 59 58 59 57 57 56 57 55 53 52 50 45 42 42 41 41 41 41 41 42 44 47 48 48 48 48 49 50 51 53 54 54 55
46 48 49 51 53 55 59 61 60 59 59 58 57 57 56 56 56 55 54 52 49 47 44 39 40 40 39 39 40 41 42 45 47 46 47 47 48 50 51 52 53 54 55
48 48 49 50 52 54 55 59 58 57 58 57 56 56 55 56 55 55 55 54 52 47 43 39 37 39 38 38 38 41 41 42 45 45 46 47 47 49 49 50 51 53 54
49 48 49 50 51 53 54 57 57 57 56 56 56 56 55 55 54 54 54 54 54 52 41 42 37 38 38 39 39 40 40 40 42 44 45 46 46 47 47 48 50 51 51
48 49 49 49 50 51 53 55 56 56 55 54 53 54 51 52 50 50 51 52 51 49 41 38 38 37 37 38 39 38 37 37 37 43 44 44 45 45 46 47 48 49 49
47 47 48 48 48 48 50 53 52 52 51 49 49 49 48 49 48 48 49 48 48 48 44 37 36 35 35 38 36 34 37 38 35 42 44 43 43 44 45 46 46 47 46
45 45 45 45 45 46 47 47 48 47 46 46 47 47 47 48 46 46 46 45 45 45 43 38 34 36 35 34 32 32 33 33 37 40 42 42 41 43 44 44 45 44 44
42 43 43 43 44 44 44 45 45 44 43 42 41 41 42 43 44 43 42 42 42 40 39 36 35 33 31 30 31 29 28 29 29 34 38 38 39 39 41 43 43 42 43
40 41 41 42 42 42 43 43 43 42 41 39 39 39 38 36 37 39 40 40 40 38 35 34 32 30 27 27 28 27 27 24 25 26 30 34 35 35 36 41 41 42 44
39 39 39 39 39 41 41 41 42 41 41 40 38 37 38 35 38 39 39 40 40 36 35 34 31 31 30 29 27 26 24 25 24 25 32 33 33 33 34 39 42 43 44
37 37 38 38 37 39 41 41 40 41 40 38 36 35 34 35 34 34 37 37 36 39 40 37 33 31 30 30 29 23 24 24 24 26 30 31 32 32 33 36 42 43 43
36 36 36 38 37 38 40 41 39 38 36 35 34 34 34 33 34 33 32 31 31 32 34 35 32 30 31 32 31 31 29 23 21 23 25 31 31 32 32 33 40 41 42
34 35 35 36 35 36 39 40 38 35 33 32 33 33 32 32 37 37 31 29 28 30 36 36 36 37 38 36 33 30 21 19 16 19 21 30 30 29 31 31 33 38 39
32 31 32 32 33 33 38 39 38 33 31 31 31 32 33 33 37 36 30 27 24 25 26 25 28 30 30 32 33 30 27 27 15 18 21 22 23 23 29 31 31 32 33
MSLP
1017.22 1016.99 1017.32 1017.71 1018.29 1018.99 1019.64 1020.08 1020.21 1020.31 1020.80 1021.16 1021.17 1021.57 1022.06 1022.10 1022.10 1022.27 1022.66 1022.82 1023.05 1023.05 1023.16 1023.03 1022.99 1022.84 1022.81 1022.72 1022.63 1022.48 1022.38 1022.17 1022.05 1021.95 1021.87 1021.76 1021.51 1021.25 1020.88 1020.50 1020.17 1019.78 1019.46
1017.11 1017.13 1017.18 1017.58 1018.09 1018.59 1019.28 1019.60 1019.94 1020.28 1020.71 1021.15 1021.35 1021.64 1021.95 1022.06 1022.10 1022.20 1022.61 1022.60 1023.01 1023.03 1023.10 1023.03 1022.99 1023.02 1022.82 1022.80 1022.61 1022.43 1022.37 1022.31 1022.06 1021.90 1021.89 1021.82 1021.56 1021.26 1020.84 1020.50 1020.23 1019.78 1019.41
1016.01 1016.57 1016.82 1017.47 1017.73 1018.43 1019.20 1019.52 1019.94 1020.37 1020.76 1021.05 1021.30 1021.55 1021.92 1021.98 1022.06 1022.21 1022.45 1022.48 1022.78 1022.89 1022.98 1022.92 1023.05 1023.16 1023.00 1022.97 1022.78 1022.56 1022.53 1022.40 1022.21 1022.05 1021.96 1021.84 1021.44 1021.17 1020.79 1020.50 1020.16 1019.84 1019.52
1015.51 1015.86 1016.30 1016.99 1017.63 1018.30 1018.95 1019.50 1020.01 1020.48 1021.02 1021.30 1021.48 1021.64 1021.80 1021.91 1022.00 1022.23 1022.42 1022.59 1022.62 1022.66 1022.73 1022.77 1022.98 1023.26 1023.17 1023.03 1022.99 1022.68 1022.52 1022.37 1022.29 1022.14 1022.05 1021.89 1021.58 1021.29 1021.07 1020.75 1020.33 1020.03 1019.78
1014.90 1015.51 1015.77 1016.40 1017.38 1017.93 1018.55 1019.24 1019.99 1020.45 1021.02 1021.28 1021.45 1021.71 1021.60 1021.87 1021.83 1022.08 1022.19 1022.37 1022.54 1022.71 1022.66 1022.79 1022.98 1023.22 1023.31 1023.24 1023.09 1022.91 1022.65 1022.47 1022.55 1022.50 1022.38 1022.07 1021.86 1021.65 1021.43 1020.94 1020.58 1020.31 1020.09
1014.36 1015.10 1015.43 1016.05 1016.99 1017.96 1018.51 1019.13 1019.86 1020.54 1020.83 1021.16 1021.23 1021.43 1021.63 1021.60 1021.63 1022.02 1022.05 1022.11 1022.29 1022.46 1022.63 1022.88 1023.09 1023.39 1023.58 1023.67 1023.35 1023.08 1022.86 1022.88 1022.98 1022.94 1022.71 1022.39 1022.11 1021.80 1021.55 1021.19 1020.86 1020.36 1019.80
1014.36 1015.02 1015.12 1015.55 1016.66 1017.64 1018.34 1018.85 1019.66 1020.19 1020.53 1020.88 1021.49 1021.70 1021.70 1021.69 1021.77 1021.92 1021.89 1022.05 1022.26 1022.21 1022.52 1022.87 1023.24 1023.57 1024.09 1024.26 1024.08 1023.78 1023.53 1023.40 1023.37 1023.22 1022.97 1022.58 1022.49 1022.23 1021.76 1021.40 1020.98 1020.44 1019.90
1014.77 1015.00 1015.55 1015.96 1016.63 1017.48 1018.13 1018.54 1019.15 1019.87 1020.36 1020.63 1021.35 1021.71 1021.91 1021.85 1022.02 1022.13 1022.42 1022.65 1022.83 1022.80 1023.17 1023.82 1024.14 1024.42 1024.80 1024.89 1024.79 1024.55 1024.27 1024.15 1023.95 1023.73 1023.47 1023.15 1022.93 1022.64 1022.06 1021.67 1021.42 1020.72 1020.24
1015.54 1015.64 1015.81 1016.11 1016.75 1017.44 1018.07 1018.38 1018.84 1019.43 1020.11 1020.59 1020.74 1021.22 1021.72 1021.94 1022.17 1022.68 1022.92 1023.12 1023.15 1023.57 1024.30 1024.60 1025.00 1025.14 1025.35 1025.59 1025.48 1025.19 1024.90 1024.72 1024.58 1024.29 1024.11 1023.63 1023.30 1022.84 1022.29 1021.87 1021.45 1021.07 1020.60
1016.43 1016.14 1016.49 1016.56 1016.91 1017.22 1017.77 1018.16 1018.57 1019.14 1019.70 1020.36 1020.87 1020.92 1021.04 1021.34 1022.12 1022.87 1023.26 1023.57 1023.97 1024.43 1025.01 1025.35 1025.55 1025.67 1025.79 1026.01 1025.94 1025.79 1025.35 1025.22 1025.02 1024.76 1024.49 1023.86 1023.64 1023.50 1022.99 1022.33 1021.74 1021.14 1020.71
1017.07 1016.84 1017.05 1017.00 1017.11 1017.18 1017.58 1017.83 1018.44 1018.92 1019.38 1020.02 1020.44 1020.90 1021.23 1021.28 1021.72 1022.37 1023.08 1023.80 1024.39 1025.16 1025.57 1025.83 1026.07 1026.36 1026.51 1026.48 1026.31 1026.29 1025.98 1025.68 1025.47 1025.46 1024.86 1024.34 1024.11 1024.01 1023.34 1022.61 1021.92 1021.27 1020.64
1017.86 1017.61 1017.54 1017.32 1017.10 1016.94 1017.46 1017.66 1018.11 1018.49 1019.08 1019.47 1020.00 1020.34 1020.66 1021.03 1021.49 1021.96 1022.58 1023.25 1023.94 1025.27 1025.97 1026.39 1026.46 1026.69 1026.88 1026.88 1027.04 1027.07 1026.44 1026.05 1025.79 1025.77 1025.43 1024.97 1024.59 1024.32 1023.75 1023.08 1022.28 1021.30 1020.53
1018.50 1018.55 1018.19 1017.91 1017.55 1017.25 1017.08 1017.46 1018.12 1018.61 1018.98 1019.34 1019.73 1020.21 1020.34 1020.52 1020.84 1021.39 1022.09 1022.76 1023.48 1024.87 1025.91 1026.71 1027.04 1027.12 1027.25 1027.41 1027.56 1027.48 1026.96 1026.49 1026.30 1026.02 1025.91 1025.28 1025.18 1024.51 1024.15 1023.15 1022.34 1021.66 1020.60
1018.75 1018.82 1018.22 1018.11 1017.89 1017.43 1017.04 1017.31 1017.84 1018.50 1018.99 1019.33 1019.60 1020.00 1020.31 1020.46 1020.69 1021.13 1021.64 1022.08 1022.89 1024.12 1025.39 1026.47 1027.46 1027.52 1027.64 1027.55 1027.66 1027.56 1027.49 1027.07 1026.83 1026.72 1026.05 1025.85 1025.43 1024.80 1024.26 1023.53 1022.91 1021.88 1020.84
1018.91 1018.87 1018.65 1018.59 1017.98 1017.57 1017.38 1017.44 1017.87 1018.48 1018.86 1019.33 1019.70 1019.96 1020.33 1020.66 1020.76 1021.13 1021.26 1021.49 1022.06 1023.28 1024.83 1026.51 1027.35 1027.92 1028.03 1028.03 1027.91 1027.52 1027.63 1027.62 1027.29 1026.99 1026.81 1026.38 1025.69 1025.28 1024.94 1024.20 1023.25 1022.30 1021.37
1019.14 1019.03 1018.87 1018.27 1018.22 1017.89 1017.65 1017.79 1018.02 1018.48 1018.90 1019.24 1019.64 1019.94 1020.22 1020.20 1020.77 1020.91 1021.08 1021.21 1021.71 1022.40 1024.69 1026.09 1027.35 1028.01 1028.34 1028.46 1028.23 1027.99 1028.03 1028.05 1027.68 1027.18 1027.21 1026.78 1026.36 1025.96 1025.63 1024.81 1024.07 1023.05 1022.16
1019.15 1018.88 1018.83 1018.73 1018.69 1018.40 1018.12 1017.96 1018.09 1018.42 1018.84 1019.29 1019.65 1020.05 1020.42 1020.37 1021.11 1021.38 1021.40 1021.46 1021.87 1022.46 1024.32 1026.51 1027.29 1028.12 1028.31 1028.38 1028.32 1028.26 1028.31 1028.49 1028.22 1027.79 1027.42 1027.52 1026.76 1026.51 1025.98 1025.48 1024.76 1023.92 1023.29
1019.48 1019.29 1019.30 1019.16 1018.93 1018.74 1018.51 1018.47 1018.75 1018.94 1019.29 1020.05 1020.35 1020.68 1021.01 1021.18 1021.45 1021.68 1021.75 1021.91 1022.17 1022.53 1023.64 1025.77 1027.40 1027.93 1028.23 1028.35 1028.52 1028.56 1028.69 1028.48 1028.28 1027.99 1027.95 1028.03 1027.39 1026.95 1026.55 1026.11 1025.33 1024.86 1024.15
1019.94 1019.86 1019.53 1019.36 1019.34 1019.20 1019.18 1019.38 1019.40 1019.89 1020.38 1020.71 1020.81 1021.03 1021.34 1021.52 1021.82 1022.07 1022.16 1022.35 1022.60 1022.89 1023.43 1024.73 1026.54 1027.61 1028.17 1028.65 1028.92 1028.98 1029.10 1029.12 1028.65 1028.35 1028.57 1028.35 1028.21 1027.73 1027.10 1026.47 1026.09 1025.55 1025.09
1020.44 1020.20 1020.04 1019.81 1019.68 1019.78 1019.80 1020.06 1020.28 1020.74 1021.05 1021.42 1021.56 1021.80 1022.06 1022.13 1022.33 1022.47 1022.71 1022.90 1023.03 1023.59 1024.12 1024.83 1026.33 1027.49 1028.19 1028.82 1028.76 1029.25 1029.63 1029.54 1029.36 1029.17 1029.02 1028.56 1028.76 1028.14 1027.73 1027.19 1026.60 1026.16 1026.14
1020.72 1020.74 1020.44 1020.33 1020.54 1020.30 1020.51 1020.60 1020.95 1021.42 1021.62 1022.21 1022.57 1022.67 1022.95 1023.06 1022.97 1022.94 1023.06 1023.42 1023.62 1024.10 1024.70 1025.44 1026.29 1027.59 1028.25 1029.02 1028.98 1029.39 1029.92 1030.04 1030.29 1030.06 1029.68 1029.08 1029.04 1028.74 1028.44 1027.87 1027.16 1027.16 1026.82
1021.21 1021.07 1021.11 1021.01 1021.23 1021.03 1021.16 1021.18 1021.42 1021.86 1022.39 1022.82 1023.18 1023.35 1023.58 1023.69 1023.53 1023.37 1023.43 1023.66 1023.78 1024.23 1024.67 1025.20 1026.31 1027.00 1027.71 1028.32 1028.69 1029.17 1029.83 1030.36 1030.52 1030.21 1030.07 1029.71 1029.39 1029.40 1029.24 1028.50 1028.01 1027.75 1027.42
1022.03 1021.92 1021.85 1021.67 1021.74 1021.89 1021.72 1021.79 1022.05 1022.45 1022.73 1023.11 1023.40 1023.81 1023.90 1024.07 1024.12 1024.24 1024.12 1024.26 1024.38 1024.39 1024.46 1024.92 1025.78 1026.37 1027.11 1027.45 1027.88 1029.07 1029.47 1029.93 1030.45 1030.52 1030.25 1030.13 1029.74 1029.83 1029.71 1029.11 1028.69 1028.31 1027.88
1022.46 1022.57 1022.64 1022.57 1022.65 1022.93 1022.66 1022.58 1022.59 1022.83 1023.35 1023.51 1023.74 1023.98 1024.11 1024.37 1024.37 1024.84 1025.07 1025.18 1025.50 1025.57 1025.42 1025.36 1025.85 1026.34 1026.47 1027.01 1027.53 1027.83 1028.79 1029.95 1030.72 1030.76 1030.51 1030.37 1030.28 1030.20 1029.98 1029.72 1029.29 1028.95 1028.48
1022.60 1022.82 1023.01 1023.14 1023.32 1023.38 1023.15 1023.11 1023.18 1023.47 1023.97 1024.23 1024.29 1024.46 1024.70 1024.70 1024.80 1025.09 1025.29 1025.82 1026.35 1026.48 1026.45 1026.20 1026.49 1026.83 1027.07 1027.46 1027.81 1028.12 1029.26 1030.01 1031.11 1031.00 1030.68 1030.24 1030.54 1030.33 1030.02 1029.97 1029.86 1029.54 1029.22
1023.25 1023.31 1023.44 1023.46 1023.50 1023.52 1023.38 1023.17 1023.31 1023.68 1024.26 1024.62 1024.80 1024.89 1024.92 1025.13 1025.17 1025.44 1025.65 1026.02 1026.54 1027.29 1027.38 1027.77 1027.91 1027.95 1028.24 1028.37 1028.33 1028.41 1028.78 1029.61 1030.29 1030.91 1030.40 1030.87 1030.83 1030.66 1030.52 1030.15 1030.07 1029.86 1029.79
Wind_Speed
8 4 6 7 7 8 8 7 6 4 5 5 5 5 4 3 3 3 3 7 5 3 4 4 6 7 8 10 9 11 12 12 12 11 12 12 12 13 14 15 16 18 19
7 4 7 7 8 8 7 6 5 4 4 5 5 5 5 3 3 3 2 4 7 6 6 6 6 8 9 11 12 13 14 14 13 13 13 14 15 16 16 16 16 15 16
8 11 8 6 8 7 7 6 4 3 4 3 4 5 3 4 3 3 2 2 3 7 7 7 7 8 8 10 11 12 13 13 13 12 13 14 15 15 15 17 18 19 20
13 12 8 8 7 8 7 6 4 4 4 4 3 4 4 4 4 3 2 2 3 2 5 5 3 4 6 8 10 10 10 11 12 12 13 15 16 18 18 18 19 20 20
14 11 8 8 8 7 8 7 3 5 4 4 4 5 4 4 5 4 5 4 4 3 0 1 3 2 7 9 9 9 9 10 13 15 14 15 16 17 18 18 18 18 19
9 7 7 7 7 6 6 6 6 4 4 4 3 3 3 3 3 3 4 4 4 3 2 2 2 5 9 13 13 13 16 15 15 15 15 15 16 16 16 16 16 17 17
4 7 3 5 7 7 8 9 6 8 3 3 3 2 2 3 3 3 2 1 1 3 3 2 4 4 7 12 12 13 13 13 14 14 15 16 16 16 16 17 17 18 18
7 2 6 6 6 5 6 7 6 3 2 4 3 2 1 2 1 3 4 4 5 4 7 9 8 8 6 5 9 14 15 16 16 16 16 16 16 17 17 18 19 20 21
7 5 3 5 7 4 4 5 7 7 4 2 4 4 2 2 3 1 3 2 4 6 6 7 7 8 8 6 7 10 15 16 16 17 17 16 17 17 18 19 20 20 21
7 8 4 1 2 4 5 7 6 6 5 5 2 2 1 4 2 3 2 4 6 7 6 5 6 7 7 5 10 13 14 15 15 15 15 16 18 20 18 19 20 21 22
8 8 5 4 3 2 1 6 6 6 4 4 4 2 2 1 2 2 3 3 4 5 5 5 5 5 6 6 7 10 14 14 16 14 16 19 19 18 19 21 21 22 24
5 8 7 5 4 3 2 1 3 6 5 5 4 4 4 4 3 3 2 2 3 3 4 5 5 5 5 5 8 13 14 15 16 16 17 18 18 19 21 22 23 25 26
3 7 7 6 4 4 7 6 3 3 4 4 5 4 3 2 3 3 3 3 3 3 3 4 4 4 5 4 5 7 14 16 16 16 16 18 19 20 21 23 25 25 25
4 5 6 6 6 4 2 6 5 5 4 4 5 3 3 3 3 3 3 3 2 2 2 4 3 4 4 4 6 8 7 15 16 16 17 18 19 20 23 24 24 25 26
3 5 5 5 6 5 4 2 4 5 4 4 3 3 3 3 2 3 4 3 3 3 2 3 2 4 4 4 4 4 6 13 16 17 17 18 20 21 23 23 25 25 28
2 3 4 5 6 5 3 3 4 4 4 3 3 3 3 2 2 1 2 2 2 2 4 3 3 3 3 3 3 4 5 6 14 17 17 19 19 21 22 24 24 25 28
6 6 5 5 5 5 3 1 4 5 6 4 4 4 4 3 3 2 2 2 3 3 5 3 3 4 2 2 3 4 4 4 4 13 16 17 18 20 23 23 24 24 27
4 5 5 4 5 5 5 4 5 6 6 6 5 5 5 4 4 4 3 4 4 4 4 6 3 2 2 2 4 4 3 3 3 11 15 15 18 20 22 24 24 24 25
4 3 4 5 5 6 6 6 7 7 7 6 5 6 5 5 4 3 3 4 3 3 4 5 5 2 2 1 3 4 4 3 4 9 12 15 16 20 22 23 22 23 23
4 4 4 5 6 6 6 6 7 8 8 8 8 8 6 6 4 4 4 4 4 5 6 7 4 3 3 0 3 2 3 4 3 4 8 9 12 16 21 20 22 21 21
5 5 6 7 7 7 4 7 7 7 9 9 7 9 8 8 14 9 4 4 5 4 4 5 4 3 2 1 2 1 3 1 3 3 3 5 4 6 9 13 15 18 20
5 6 7 7 7 6 11 11 9 7 7 7 7 7 6 6 10 14 16 16 8 5 4 4 3 4 4 3 2 3 3 3 2 2 1 4 3 6 5 6 17 17 19
6 7 7 7 8 6 10 10 9 6 6 6 6 5 6 4 5 6 12 15 13 16 8 5 5 4 5 5 5 2 3 2 3 2 1 2 3 5 3 6 16 18 18
5 4 6 6 7 6 9 9 10 6 6 6 6 5 6 5 5 6 6 8 8 8 7 6 6 4 5 6 5 4 5 4 3 2 2 3 2 2 2 3 13 16 18
5 5 4 6 5 5 9 8 6 6 6 6 5 6 5 6 7 9 7 9 7 8 12 17 15 13 12 10 7 7 3 4 0 2 2 2 0 0 1 2 3 11 14
4 3 5 5 5 5 7 8 6 3 5 3 4 5 9 7 8 8 6 6 8 3 5 5 4 8 8 7 8 3 3 4 3 2 3 3 0 1 2 0 2 4 3
Wind_Direction
291 142 153 157 151 156 164 165 165 193 171 145 138 142 158 162 131 116 148 163 187 228 275 301 315 324 341 342 345 345 342 346 356 3 354 350 349 339 336 332 327 330 331
227 209 162 165 153 158 162 161 152 151 153 149 154 173 173 168 143 119 139 175 202 213 252 280 303 319 334 336 338 340 339 342 349 358 356 350 344 335 329 337 340 344 344
195 228 160 168 162 155 145 147 144 154 128 132 166 168 174 169 162 177 201 166 194 227 238 261 294 314 340 344 342 345 337 341 359 1 357 345 338 346 1 356 354 352 349
206 204 168 165 159 156 151 162 148 135 152 168 182 170 180 164 186 194 193 236 233 239 223 240 276 339 1 360 350 355 348 355 352 356 2 17 6 358 356 352 351 345 342
195 191 174 163 171 158 159 163 147 137 158 175 200 195 173 179 193 196 202 211 219 223 82 150 175 85 46 34 22 12 6 3 33 24 14 9 2 359 349 349 345 347 344
186 174 160 163 161 155 149 139 148 160 166 192 182 128 178 204 167 243 221 217 203 170 137 247 170 90 80 55 38 27 26 31 25 19 13 8 2 358 354 353 351 350 349
145 173 149 153 143 158 165 163 157 173 173 152 97 351 308 259 233 241 315 11 346 178 157 71 58 86 65 58 43 34 32 33 27 21 15 17 9 1 359 357 354 352 349
51 71 189 134 130 147 160 152 147 131 141 158 146 126 282 5 84 79 59 53 63 62 61 55 56 58 57 48 40 36 33 28 27 22 20 18 12 6 5 1 354 354 350
28 52 26 129 148 169 173 163 158 157 137 170 180 146 99 187 111 34 89 114 91 68 63 61 58 59 55 48 39 31 36 35 29 25 21 21 17 12 7 4 0 353 346
19 34 16 326 194 175 182 169 169 169 139 158 159 192 211 136 137 120 66 68 67 69 70 64 58 54 57 45 47 32 37 39 34 30 28 27 21 15 9 4 358 354 346
8 31 13 4 208 223 204 161 157 162 159 148 149 140 219 126 136 135 172 157 87 66 62 64 64 59 51 48 47 27 34 38 39 30 30 30 24 15 8 5 1 356 350
359 25 6 355 342 179 230 235 201 171 174 140 168 176 161 158 186 173 185 151 148 91 75 65 63 57 48 50 51 28 37 40 39 33 31 29 27 20 11 7 4 2 356
8 1 359 355 352 331 194 190 175 135 171 160 167 183 176 163 136 136 160 180 151 142 118 66 60 57 61 52 37 36 30 39 38 38 35 34 28 22 14 14 12 6 5
348 338 360 347 337 337 297 166 162 167 171 173 156 148 174 162 141 142 169 163 160 133 137 118 62 63 58 55 22 62 31 39 42 40 42 39 33 26 21 18 14 15 15
357 340 342 320 345 342 338 186 134 150 138 145 156 185 180 191 184 196 207 180 177 156 134 146 118 70 68 51 29 73 63 39 48 47 45 43 35 27 21 18 20 23 27
335 335 340 6 343 333 338 253 145 152 160 139 159 199 197 142 132 118 194 180 180 155 113 54 82 105 71 76 43 54 48 51 44 54 49 41 33 29 25 26 27 29 31
348 6 4 4 338 351 337 121 139 154 139 140 110 137 90 99 105 114 105 96 112 101 108 108 96 125 104 100 75 70 56 38 19 49 45 41 37 34 32 31 34 33 35
358 1 358 5 12 12 359 71 78 56 76 81 87 96 103 84 92 85 81 93 98 109 120 130 136 133 117 116 91 82 36 51 42 43 46 45 40 39 35 33 38 38 36
18 25 34 42 28 30 41 48 73 77 78 72 76 88 82 94 74 82 83 94 89 85 105 133 128 134 116 134 83 62 45 19 29 26 43 45 40 38 35 35 37 41 35
23 34 42 56 56 69 71 76 87 90 81 73 61 58 50 59 88 96 92 102 101 87 91 101 93 105 108 158 105 127 54 39 25 2 32 41 35 36 29 29 37 41 40
39 35 48 54 49 55 56 79 82 93 89 83 78 75 64 75 71 68 99 84 94 93 104 107 98 116 94 104 133 187 99 54 349 9 339 33 25 27 16 18 40 46 52
34 49 60 68 61 59 80 88 90 94 100 100 95 81 82 70 76 85 84 78 92 126 125 129 144 144 157 142 128 151 126 113 76 340 15 44 26 36 4 20 38 44 51
27 36 50 63 64 55 77 94 92 91 95 99 102 106 90 81 75 73 70 68 61 65 70 151 148 150 143 163 140 113 128 127 144 271 306 69 10 54 358 14 42 46 49
65 52 46 54 67 55 54 81 86 90 91 87 100 115 107 99 91 100 89 73 60 53 46 73 87 89 105 124 143 149 140 112 56 337 309 100 343 32 338 20 38 44 49
97 89 65 61 73 62 51 64 78 82 80 82 76 84 100 97 105 119 105 99 77 62 73 83 88 91 97 112 122 116 102 102 90 255 334 100 212 297 2 30 10 44 44
94 76 82 80 84 86 51 53 93 104 105 83 72 67 102 106 95 114 113 118 104 102 80 43 55 76 66 74 65 65 141 147 144 31 253 111 166 134 59 20 22 22 9